Regional Weather Roundup
Issued by NWS Upton, NY

Current Version | Previous Version | Text Only | Print | Product List | Glossary On
Versions: 1 2 3 4 5 6 7 8 9 10 11 12 13 14 15 16 17 18 19 20 21 22 23 24 25 26
000 ASUS41 KOKX 240905 RWROKX Regional Weather Roundup National Weather Service New York NY 500 AM EDT THU MAY 24 2018 Note: "FAIR" indicates few or no clouds below 12,000 feet with no significant weather and/or obstructions to visibility. NYZ071-072-176-178-NJZ106-104-241000- New York City Metro Area CITY SKY/WX TMP DP RH WIND PRES REMARKS Central Park FAIR 64 52 64 CALM 30.07R Bronx Bot Gard N/A 64 50 59 NW3 30.04F Bronx Lehman C N/A 66 52 59 NW10 N/A LaGuardia Arpt FAIR 66 53 63 NW6 30.04R Queens College N/A 68 52 56 NW7 N/A Kennedy Intl FAIR 66 52 60 NW10 30.05R Breezy Point N/A 66 N/A N/A NW7 N/A Brooklyn Coll N/A 68 52 56 NW8 N/A Staten Island N/A 64 52 63 W3 N/A Newark/Liberty FAIR 67 51 56 NW7 30.05R Teterboro FAIR 64 53 67 N6 30.04R $$ NYZ177-179-078>081-241000- Long Island New York CITY SKY/WX TMP DP RH WIND PRES REMARKS Jones Beach N/A 63 N/A N/A W8 N/A Wantagh N/A 64 50 59 NW6 N/A Hempstead N/A 66 52 59 W3 30.07R Matinecock Pt N/A 64 N/A N/A SW2 N/A Farmingdale FAIR 63 50 62 CALM 30.03R MacArthur/ISP FAIR 60 51 72 NW7 30.03R Stony Brook N/A 59 52 77 NW1 N/A Shirley FAIR 56 53 90 CALM 30.03R Mt Sinai Harb N/A N/A N/A N/A NW5 N/A Westhampton FAIR 50 46 86 N3 30.04R East Hampton FAIR 52 50 93 CALM 30.01R Southold N/A 61 52 72 N8 N/A Montauk N/A 56 50 80 CALM 30.02R $$ NYZ052-065-067-241000- Hudson Valley CITY SKY/WX TMP DP RH WIND PRES REMARKS White Plains FAIR 57 50 77 NW9 30.04R Larchmont Harb N/A 64 N/A N/A NW5 N/A Croton On Huds N/A 57 N/A N/A CALM N/A Somers N/A 59 50 72 NW2 N/A Brewster N/A 57 48 72 N3 N/A Newburgh NOT AVBL Montgomery FAIR 58 51 78 CALM 30.06R Otisville N/A 54 52 94 SE2 N/A Warwick N/A 52 52 100 NW2 N/A Suffern N/A 63 52 67 N3 N/A Poughkeepsie FAIR 51 49 92 CALM 30.06R Albany FAIR 55 47 74 NE3 30.09R $$ NJZ001-105-106-008-010-013-015-019>022-104-241000- New Jersey CITY SKY/WX TMP DP RH WIND PRES REMARKS Newark/Liberty FAIR 67 51 56 NW7 30.05R Teterboro FAIR 64 53 67 N6 30.04R Caldwell FAIR 55 53 93 CALM 30.07R Somerville FAIR 51 51 100 NW5 30.06R Linden FAIR 64 51 63 CALM 30.06R Perth Amboy N/A 64 N/A N/A W8 N/A Sussex FAIR 50 49 96 CALM 30.10R Andover N/A 52 51 97 CALM 30.11R Trenton FAIR 60 53 77 NW5 30.07R Millville FAIR 55 53 93 W3 30.08R Atlantic City FAIR 59 55 87 NW3 30.06R Wrightstown NOT AVBL Toms River FAIR 58 53 84 W5 30.07R Belmar FAIR 60 52 74 W6 30.06S $$ PAZ047>061-062-071-241000- Eastern Pennsylvania CITY SKY/WX TMP DP RH WIND PRES REMARKS Philadelphia FAIR 63 53 70 N7 30.08R Allentown FAIR 54 50 86 W3 30.10R Scranton FAIR 52 50 93 CALM 30.14R $$ CTZ002-004>006-009-010-012-RIZ004-006-007-MAZ004-011-015-241000- Southern New England In CT CITY SKY/WX TMP DP RH WIND PRES REMARKS Bradley Intl FAIR 54 50 86 NE6 30.03R Hartford FAIR 55 52 89 CALM 30.03R Danbury FAIR 52 50 93 SW3 30.07R Wtrbury/Oxford FAIR 57 49 74 N7 30.06R Norwalk Harbor N/A 59 N/A N/A N6 N/A Bridgeport FAIR 63 50 62 CALM 30.03R Meriden FAIR 62 50 64 W7 30.03R New Haven FAIR 66 50 56 NW6 30.02R Chester FAIR 63 52 67 NW9 30.03R Groton FAIR 56 51 84 N6 30.01R Willimantic FAIR 52 51 97 CALM 30.03R In RI CITY SKY/WX TMP DP RH WIND PRES REMARKS Providence FAIR 55 52 89 N6 30.02R Block Island FAIR 57 54 89 N7 30.02R Westerly FAIR 56 53 90 N3 30.02R In MA CITY SKY/WX TMP DP RH WIND PRES REMARKS Boston FAIR 54 52 93 N5 30.03R Worcester FAIR 54 52 93 N3 30.04R Westfield FAIR 56 52 86 N6 30.03R Provincetown FAIR 52 48 86 SE5 30.03R Nantucket CLOUDY 54 54 100 NE12 30.00R $$ ANZ330-335-338-340-345-350-353-355-241000- Coastal Marine Observations STATION/POSITION TIME SKY/WX TEMP WIND PRES VSBY WAVE AIR SEA DIR/SP/G HT/PER (UTC) (F) (DEG/KT/KT) (MB) (MI) (FT/S) NY Harb Entrance 0850 62 58 290/ 8/ 10 1017.1 2/ 6 20 S Fire Island 0850 60 55 310/ 6/ 6 1016.7 2/ 6 23 SSW Montauk P 0850 58 55 290/ 6/ 8 1016.1 2/ 6 15 E Barnegat Li 0830 60 N/A 3/ 8 Hudson Canyon 0850 59 53 330/ 12/ 14 1015.7 3/ 8 Kings Point 0836 66 58 10/ 2/ 4 1018.1 Execution Rocks NOT AVBL Western LI Sound NOT AVBL Central LI Sound 0845 61 360/ 6/ 6 N/A 0 Robbins Reef 0848 68 300/ 7/ 9 1017.9 $$ >>>>>>>>>>>>>>>>>>>>>>>>>>>> KEY <<<<<<<<<<<<<<<<<<<<<<<<<<< > < > SKY/WX - Sky Condition/Present Weather < > TMP - Temperature in Fahrenheit < > DP - Dew Point in Fahrenheit < > RH - Relative Humidity in Percent < > WIND - Direction (from) and Speed in MPH < > PRES - Mean Sea Level Pressure (inches of Hg) < > WCI - Wind Chill Index < > VSB - Visibility in Miles < > HX - Heat Index < > TC - Temperature in Celsius < > VRB - Varibale Wind Direction < > < >>>>>>>>>>>>>>>>>>>>>>>>>>>> KEY <<<<<<<<<<<<<<<<<<<<<<<<<<<

USA.gov is the U.S. government's official web portal to all federal, state and local government web resources and services.